Location: Haut Kerinec
(48.0623°N, 4.4081°W)
Time: 21:54:19
(UTC+00:00)

STARLINK-1254 - Pass Details

Date: 01 October 2020
Orbit: 548 x 551 km, 53.0° (Epoch: 26 October)

Event Time Altitude Azimuth Distance (km) Brightness Sun altitude
Exits shadow 02:44:32 12° 88° (E) 1,694 6.6 -34.0°
Drops below altitude 10° 02:44:53 10° 89° (E) 1,826 6.8 -34.0°
Sets 02:47:11 0° 95° (E) 2,719 7.7 -33.7°
